Regional Weather Roundup
Issued by NWS

Home | Current Version | Previous Version | Graphics & Text | Print | Product List | Glossary On
Versions: 1 2 3 4 5 6 7 8 9 10 11 12 13 14 15 16 17 18 19 20 21 22 23 24 25 26 27 28 29 30 31 32 33 34 35 36 37 38 39 40 41 42 43 44 45 46 47 48 49 50
000
ASUS43 KBIS 190801
RWRND

NORTH DAKOTA REGIONAL WEATHER ROUNDUP
NATIONAL WEATHER SERVICE BISMARCK ND
300 AM CDT SUN APR 19 2015

NOTE: "FAIR" INDICATES FEW OR NO CLOUDS BELOW 12,000 FEET WITH NO
SIGNIFICANT WEATHER AND/OR OBSTRUCTIONS TO VISIBILITY.


NDZ001>003-009>011-017-190900-
NORTHWEST NORTH DAKOTA

CITY           SKY/WX    TMP DP  RH WIND       PRES   REMARKS
WILLISTON      CLEAR     37  26  64 W13       30.02F
MINOT          CLOUDY    43  33  68 W17       29.91F
MINOT AFB      CLOUDY    42  38  89 NW13      29.91F
$$

NDZ018>021-031>035-040>046-190900-
SOUTHWEST NORTH DAKOTA

CITY           SKY/WX    TMP DP  RH WIND       PRES   REMARKS
BISMARCK       CLOUDY    45  38  76 N14       29.90F
DICKINSON      MOCLDY    38  30  73 W10       29.99S
GARRISON         N/A     42  35  76 NW17      29.93F
HETTINGER ARPT CLOUDY    39  31  72 NW14      30.01S
$$

NDZ004>008-012>016-024-026-027-054-190900-
NORTHEAST NORTH DAKOTA

CITY           SKY/WX    TMP DP  RH WIND       PRES   REMARKS
GRAND FORKS    LGT RAIN  49  45  86 NW7       29.79F
GRND FRKS AFB  DRIZZLE   50  45  81 NW6       29.78F
DEVILS LAKE    CLOUDY    46  41  81 NW18      29.82F
$$

NDZ022-023-025-028>030-036>039-047>053-190900-
SOUTHEAST NORTH DAKOTA

CITY           SKY/WX    TMP DP  RH WIND       PRES   REMARKS
FARGO          RAIN      53  50  89 CALM      29.77F FOG
JAMESTOWN      LGT RAIN  47  45  93 NW14G21   29.79F
$$




USA.gov is the U.S. government's official web portal to all federal, state and local government web resources and services.